Temp
8 8 8 8 7 8 9 9 8 7 7 8 8 9 11 11 11 11 11 12 12 12 15 15 15 15 14 17 17 17 17 16 16 15 15 15 15 14 15 15 15 15 15 15
6 7 8 7 7 9 9 9 8 9 8 9 8 9 11 11 11 12 12 13 12 13 13 14 15 15 15 16 16 15 16 15 15 15 14 14 14 14 14 15 15 16 16 15
7 8 8 9 9 9 8 9 8 9 9 9 8 9 10 11 10 12 14 14 14 13 14 14 14 15 16 15 15 15 15 15 15 14 14 14 15 14 13 14 14 15 15 15
6 7 8 8 9 9 10 10 10 9 9 9 9 10 10 10 11 12 14 15 15 15 15 15 14 15 15 15 15 15 15 14 14 14 13 14 14 14 14 13 13 13 14 15
7 7 7 8 9 9 9 9 9 9 9 9 9 9 10 9 10 11 12 14 16 16 16 16 16 16 16 16 16 16 15 15 14 14 14 14 13 13 13 14 13 13 14 14
6 6 6 7 8 9 8 8 7 7 8 9 9 9 10 10 10 12 12 13 14 16 16 16 16 16 16 16 16 15 15 15 15 15 15 15 14 14 14 14 14 14 14 14
3 5 6 7 7 8 8 8 7 8 8 8 6 8 10 10 11 11 12 12 13 14 15 16 16 16 16 16 16 16 16 16 15 15 15 15 15 14 15 15 15 15 15 15
3 3 6 6 7 8 7 7 6 7 7 7 7 8 11 10 11 11 12 12 12 13 15 15 15 16 17 17 16 16 17 17 16 16 16 15 15 15 15 15 15 15 15 14
4 4 6 6 7 7 7 7 7 5 4 6 7 7 9 10 9 10 11 11 12 12 13 14 16 16 16 16 16 17 17 17 16 16 15 15 15 15 15 15 15 15 14 14
5 3 5 6 7 6 7 6 7 7 7 7 7 6 10 10 11 10 11 10 11 12 12 13 15 16 16 17 16 16 16 16 16 15 15 15 15 15 15 15 15 15 14 14
6 5 5 6 5 5 6 6 6 6 7 7 7 9 7 9 8 8 9 10 11 12 11 12 13 14 14 15 16 16 16 16 16 15 15 15 14 14 14 14 14 14 13 12
5 5 4 5 5 5 6 5 5 7 6 4 5 9 8 7 6 6 8 10 11 11 11 11 12 13 14 14 15 15 15 16 15 15 14 14 14 14 13 13 13 13 12 10
5 2 -1 2 4 6 5 4 4 4 4 3 7 8 8 7 6 7 8 9 10 10 11 12 12 12 12 13 13 14 14 14 14 14 14 14 14 13 13 13 12 12 11 10
4 1 1 1 1 3 3 4 5 3 6 5 5 8 9 8 8 8 8 9 10 10 11 12 12 12 12 12 12 12 12 12 13 13 13 12 12 12 12 12 11 11 10 10
1 -2 0 2 2 3 4 3 4 3 4 6 5 6 8 8 8 9 10 9 10 11 12 12 12 12 12 12 12 12 12 12 12 12 12 11 11 11 11 10 10 10 10 9
-1 -2 -3 -3 2 2 2 3 4 4 5 5 5 5 6 7 8 8 8 10 10 10 11 11 12 12 12 12 12 12 12 12 12 12 11 10 10 10 10 10 10 9 9 9
-1 -2 -3 -1 1 2 1 5 4 5 5 5 5 7 7 7 7 7 7 8 9 10 10 11 12 12 12 12 12 12 11 11 11 11 10 9 9 9 9 9 9 8 8 8
-2 -3 1 0 -1 1 4 4 5 4 3 3 5 5 5 5 6 7 7 8 9 10 10 10 11 11 11 11 11 11 11 11 11 11 10 9 8 8 8 8 8 8 7 7
-3 -2 -2 1 2 2 5 4 3 4 4 3 2 3 3 4 5 6 7 8 9 9 9 10 10 10 10 10 10 10 10 10 10 10 10 10 9 7 7 7 7 7 7 7
-0 -1 -2 -2 -0 3 5 4 3 2 4 2 2 2 2 4 5 6 5 6 7 7 8 8 8 9 9 9 9 9 10 9 10 10 10 9 8 7 7 6 6 6 6 6
0 -0 -2 -2 -1 1 2 3 3 5 4 2 2 1 2 3 3 4 6 6 7 7 7 8 8 8 8 8 9 9 9 9 9 9 8 8 7 6 6 6 5 5 5 6
-1 -2 -1 1 0 1 3 4 5 3 2 2 2 2 2 2 4 4 5 6 6 7 7 7 7 7 7 7 7 8 8 8 8 8 8 7 6 6 5 5 5 5 5 5
0 0 0 1 1 2 3 3 3 2 2 1 1 2 2 2 3 3 4 5 5 6 6 6 7 6 6 6 7 7 8 8 7 7 7 7 6 6 5 5 5 5 5 4
-0 -0 0 1 2 1 2 2 2 1 1 1 1 1 1 2 2 3 3 4 5 5 5 5 5 5 5 5 6 6 7 7 7 7 7 6 6 6 5 5 4 4 4 4
-1 -1 -1 -1 -0 1 1 1 1 1 1 1 1 2 2 1 2 2 3 3 4 4 4 5 5 5 5 5 5 5 6 6 6 6 6 6 6 5 5 4 4 4 3 3
-2 -2 -1 1 1 1 1 1 1 -0 -0 0 0 0 1 1 1 2 2 3 3 4 4 4 4 4 4 4 4 5 5 5 5 5 5 5 5 4 4 4 3 3 3 3
Height
1460 1461 1465 1464 1462 1458 1457 1461 1473 1474 1475 1480 1471 1465 1458 1457 1458 1461 1462 1465 1466 1468 1471 1479 1484 1488 1495 1496 1501 1501 1508 1512 1516 1524 1528 1532 1535 1538 1542 1543 1547 1550 1552 1555
1466 1467 1464 1462 1462 1460 1460 1462 1469 1468 1475 1475 1463 1462 1457 1457 1456 1458 1459 1461 1466 1469 1470 1475 1481 1486 1491 1495 1499 1501 1507 1515 1518 1520 1524 1528 1533 1536 1539 1542 1543 1545 1549 1551
1467 1466 1465 1462 1462 1462 1465 1463 1467 1468 1470 1469 1471 1467 1457 1456 1456 1455 1457 1458 1462 1467 1470 1474 1477 1483 1486 1491 1497 1502 1506 1509 1514 1518 1522 1524 1526 1528 1534 1538 1543 1545 1546 1546
1469 1466 1463 1462 1462 1462 1465 1461 1461 1464 1470 1472 1472 1467 1460 1456 1454 1454 1453 1456 1459 1463 1467 1472 1477 1480 1483 1487 1492 1497 1501 1503 1511 1514 1515 1520 1525 1525 1527 1535 1537 1536 1540 1541
1471 1468 1466 1465 1461 1461 1462 1463 1463 1466 1469 1466 1472 1474 1460 1460 1451 1450 1450 1453 1456 1459 1463 1469 1475 1478 1479 1482 1486 1490 1493 1500 1503 1508 1510 1513 1521 1525 1526 1528 1532 1539 1535 1538
1469 1468 1467 1466 1465 1463 1462 1464 1468 1471 1469 1470 1468 1474 1458 1457 1447 1443 1445 1448 1450 1456 1460 1465 1470 1472 1475 1479 1483 1488 1491 1497 1501 1504 1508 1510 1511 1515 1521 1524 1527 1529 1531 1532
1474 1471 1468 1466 1465 1464 1464 1467 1476 1472 1472 1474 1478 1475 1453 1446 1441 1442 1442 1448 1449 1451 1454 1458 1462 1466 1470 1476 1480 1483 1487 1493 1497 1503 1502 1506 1508 1513 1515 1517 1518 1521 1524 1526
1485 1485 1470 1468 1467 1465 1468 1469 1474 1474 1474 1476 1479 1470 1451 1444 1441 1445 1445 1445 1451 1451 1451 1453 1458 1462 1465 1471 1476 1479 1483 1487 1491 1495 1497 1501 1505 1507 1509 1512 1514 1516 1519 1522
1480 1478 1468 1468 1465 1467 1467 1468 1469 1481 1489 1481 1472 1465 1448 1440 1440 1441 1440 1442 1443 1449 1451 1451 1455 1459 1462 1466 1471 1475 1478 1481 1484 1489 1492 1496 1498 1501 1504 1506 1508 1511 1514 1517
1474 1484 1470 1467 1466 1468 1467 1468 1467 1468 1472 1475 1471 1470 1450 1440 1439 1440 1439 1442 1443 1446 1449 1450 1449 1451 1453 1460 1466 1471 1474 1478 1481 1485 1488 1491 1493 1496 1499 1500 1503 1506 1508 1510
1470 1475 1475 1468 1469 1470 1468 1467 1469 1469 1465 1464 1468 1457 1449 1443 1442 1444 1444 1441 1445 1445 1448 1448 1448 1447 1449 1455 1461 1466 1471 1475 1478 1481 1484 1487 1490 1492 1495 1497 1498 1501 1503 1505
1471 1472 1476 1471 1468 1467 1466 1470 1471 1464 1469 1477 1474 1457 1448 1445 1443 1444 1444 1444 1445 1445 1446 1448 1447 1448 1450 1454 1459 1464 1468 1471 1475 1475 1479 1483 1486 1489 1492 1493 1496 1497 1499 1502
1474 1484 1501 1481 1474 1467 1470 1473 1476 1474 1471 1482 1463 1457 1447 1446 1446 1444 1445 1445 1446 1447 1448 1448 1449 1448 1451 1455 1458 1462 1465 1468 1472 1473 1477 1481 1483 1487 1489 1490 1493 1494 1496 1498
1474 1483 1487 1491 1487 1479 1477 1472 1470 1478 1464 1467 1468 1456 1449 1450 1449 1447 1448 1448 1447 1450 1450 1450 1451 1452 1452 1455 1459 1461 1464 1466 1469 1472 1476 1479 1482 1484 1488 1489 1491 1492 1496 1498
1480 1494 1488 1482 1479 1477 1475 1475 1473 1478 1473 1465 1469 1463 1454 1452 1452 1450 1451 1450 1449 1450 1452 1453 1452 1455 1454 1457 1460 1462 1463 1465 1467 1470 1472 1476 1479 1481 1484 1486 1489 1491 1494 1498
1485 1496 1496 1496 1477 1475 1476 1471 1469 1467 1465 1466 1466 1463 1459 1455 1453 1452 1452 1452 1452 1451 1451 1451 1453 1454 1456 1459 1460 1462 1463 1464 1464 1465 1468 1473 1475 1478 1481 1483 1486 1491 1493 1495
1489 1493 1499 1493 1480 1474 1480 1465 1464 1461 1461 1461 1463 1455 1456 1454 1452 1454 1454 1456 1455 1454 1454 1453 1453 1453 1454 1456 1458 1459 1460 1461 1463 1463 1467 1470 1471 1476 1478 1481 1482 1486 1488 1490
1490 1494 1488 1490 1487 1491 1470 1464 1463 1465 1465 1463 1459 1457 1457 1453 1449 1451 1452 1452 1451 1450 1449 1449 1451 1453 1454 1454 1455 1456 1457 1460 1460 1461 1462 1466 1469 1473 1475 1477 1478 1480 1483 1486
1486 1490 1496 1490 1484 1479 1464 1465 1467 1465 1464 1465 1464 1459 1454 1447 1446 1446 1448 1448 1447 1446 1446 1447 1448 1449 1450 1450 1450 1452 1454 1456 1456 1456 1458 1461 1463 1467 1470 1472 1474 1477 1479 1481
1487 1488 1495 1496 1494 1476 1463 1465 1465 1465 1464 1467 1464 1460 1457 1448 1448 1448 1448 1448 1446 1445 1445 1445 1446 1446 1446 1445 1445 1446 1448 1449 1450 1450 1453 1455 1459 1462 1467 1468 1471 1473 1475 1479
1488 1490 1496 1496 1496 1478 1467 1463 1462 1463 1468 1465 1463 1462 1460 1456 1456 1451 1448 1447 1446 1446 1444 1444 1443 1442 1442 1441 1441 1441 1441 1442 1445 1446 1448 1451 1455 1459 1462 1464 1466 1469 1473 1473
1484 1491 1489 1485 1488 1484 1463 1462 1461 1464 1463 1463 1463 1461 1459 1457 1452 1450 1447 1447 1446 1444 1443 1442 1441 1440 1440 1439 1437 1437 1437 1438 1438 1439 1442 1447 1451 1455 1457 1460 1463 1467 1469 1471
1479 1474 1476 1476 1470 1462 1461 1462 1461 1463 1463 1463 1463 1460 1458 1456 1453 1451 1448 1447 1446 1444 1442 1441 1439 1438 1437 1434 1432 1432 1431 1431 1432 1436 1440 1444 1448 1451 1454 1457 1461 1464 1466 1468
1469 1467 1469 1468 1460 1459 1460 1460 1461 1461 1462 1462 1460 1459 1457 1454 1452 1450 1447 1446 1445 1443 1442 1440 1438 1436 1436 1434 1431 1430 1430 1430 1431 1434 1438 1442 1445 1448 1451 1455 1458 1460 1462 1465
1465 1465 1465 1464 1458 1458 1458 1458 1459 1459 1459 1457 1456 1455 1454 1452 1450 1448 1446 1444 1444 1443 1442 1441 1438 1436 1435 1433 1431 1430 1430 1430 1431 1434 1438 1441 1443 1446 1449 1452 1454 1457 1459 1461
1455 1454 1459 1456 1452 1454 1456 1457 1457 1457 1456 1454 1452 1449 1450 1450 1448 1447 1445 1443 1442 1442 1441 1440 1438 1436 1435 1433 1432 1432 1432 1432 1434 1435 1437 1439 1441 1444 1446 1448 1450 1453 1455 1457
Wind_Speed
3 3 3 3 2 3 4 9 4 3 5 8 7 11 7 7 5 6 6 7 6 18 26 25 32 30 29 36 27 30 41 26 20 22 25 24 23 22 21 20 21 22 19 17
5 2 2 4 3 3 3 7 3 1 8 8 5 14 8 3 3 0 3 2 3 10 21 29 27 28 36 36 27 36 34 38 37 27 21 22 23 23 23 23 25 25 23 21
3 1 3 1 2 4 1 4 5 5 7 0 2 7 5 1 3 6 6 7 8 7 13 17 30 34 33 36 37 40 33 29 29 27 26 27 26 33 29 29 28 25 27 27
1 4 2 2 0 3 2 1 4 8 8 1 2 2 4 4 6 3 10 14 14 12 11 12 15 23 31 34 35 37 35 34 30 33 41 36 31 37 35 31 23 30 24 26
2 3 2 1 2 1 3 2 6 4 2 3 3 1 5 5 5 8 12 19 24 19 17 15 14 17 18 22 26 28 32 33 35 38 37 39 39 33 28 24 26 29 22 27
2 2 2 2 2 2 4 5 6 4 2 1 5 5 4 6 5 5 5 20 24 27 25 21 18 17 21 21 22 23 25 26 30 31 28 27 29 29 27 24 23 26 24 22
5 1 4 2 2 2 1 3 1 2 2 3 3 4 6 5 4 6 7 12 21 22 24 23 24 22 22 21 19 20 20 21 24 23 24 23 25 22 22 21 21 20 18 17
3 5 1 2 2 2 4 3 4 5 4 2 2 6 5 6 8 13 13 16 5 17 21 24 25 25 24 23 22 21 19 20 21 20 22 21 20 18 18 19 17 17 16 15
2 4 1 3 2 3 1 4 2 5 2 1 3 4 10 5 7 8 8 7 6 6 12 18 22 25 27 26 24 21 18 18 19 20 20 20 19 18 18 18 16 15 15 16
2 3 0 3 1 2 3 1 2 2 4 3 3 4 5 5 6 5 3 3 7 8 6 8 18 25 32 33 28 24 20 18 17 18 17 17 17 17 17 17 17 17 18 18
3 1 5 2 1 3 1 2 1 1 2 3 2 4 4 4 4 6 4 3 4 7 7 10 9 11 17 26 27 26 24 20 17 16 16 16 15 15 15 15 16 16 16 17
2 2 4 6 2 2 3 1 2 3 4 1 2 4 2 4 6 6 4 8 6 7 9 11 13 13 12 17 19 22 22 20 19 16 13 13 12 13 13 12 13 12 11 12
3 2 3 9 3 3 3 1 3 6 3 4 5 3 3 5 5 10 3 8 7 6 8 10 10 13 12 11 13 16 18 19 18 17 15 13 11 11 11 11 11 11 13 15
1 2 5 6 5 2 4 3 1 2 3 3 2 3 2 6 6 8 6 7 12 11 11 13 13 13 13 10 8 9 11 13 13 13 13 12 12 12 12 13 13 14 16 17
4 2 2 4 6 4 11 13 8 1 2 3 1 3 8 7 6 2 4 4 10 13 12 9 7 6 8 8 7 6 5 6 10 12 13 14 14 14 14 15 16 17 17 17
5 1 2 4 4 5 5 9 8 8 7 10 9 8 8 8 9 6 2 9 6 7 11 14 8 3 1 2 1 1 2 4 6 8 11 14 15 17 18 17 17 19 19 18
2 2 3 4 6 4 3 4 3 2 2 3 3 2 5 8 6 12 10 10 10 13 11 7 7 7 6 6 7 7 7 8 7 9 12 15 16 19 20 20 19 19 19 16
3 3 1 3 5 4 4 2 1 6 5 9 6 8 10 12 18 21 14 17 18 12 8 6 6 8 9 9 9 9 13 14 12 12 12 15 18 20 20 19 19 20 19 17
2 3 2 1 2 4 2 3 3 2 1 6 7 10 14 18 6 8 9 9 7 6 5 6 9 12 13 13 14 14 15 15 17 17 16 16 18 20 21 20 20 20 18 16
2 3 3 2 1 2 2 2 2 3 1 5 8 9 14 15 4 3 15 6 4 4 5 6 8 11 13 16 18 18 18 19 20 20 19 17 16 19 21 20 20 18 17 17
1 1 3 0 2 6 5 7 0 1 1 3 6 9 11 5 5 15 12 7 7 7 7 9 10 12 13 14 16 17 19 21 20 17 18 18 17 19 19 19 19 19 19 17
6 5 3 3 1 5 2 3 0 1 1 4 7 10 14 18 18 16 10 9 9 8 8 10 10 11 12 12 12 12 14 15 17 17 18 18 18 19 19 19 19 19 17 15
2 5 4 7 5 3 2 3 3 2 2 5 10 11 12 14 18 20 16 10 10 8 8 8 9 8 9 11 10 9 9 10 12 15 18 17 17 18 19 19 19 19 17 15
3 5 3 1 2 5 4 5 6 3 2 7 10 13 12 13 15 18 17 11 9 7 7 7 7 6 6 7 5 4 5 7 11 15 16 15 15 16 17 18 18 17 16 14
4 7 4 5 6 4 2 7 7 7 14 18 17 15 14 13 14 12 19 10 8 6 6 6 5 5 5 6 7 3 2 6 11 15 16 15 13 14 15 17 16 15 14 13
9 6 5 5 6 3 3 4 11 13 10 12 15 17 13 13 13 12 16 9 7 6 5 6 5 5 5 5 5 5 5 6 7 10 12 12 12 13 15 15 16 16 14 13
Wind_Direction
348 103 123 261 268 338 115 112 172 167 201 245 340 298 310 330 31 37 42 70 97 183 185 200 202 200 203 193 193 204 218 222 236 239 228 223 224 220 220 215 214 213 210 213
19 111 280 290 243 126 119 123 140 129 212 253 54 304 302 299 295 210 315 306 127 142 179 189 209 212 195 199 197 183 194 212 229 240 246 241 234 241 232 230 226 230 228 219
158 251 282 240 62 88 88 138 156 197 187 299 116 298 294 274 231 248 247 258 260 209 160 182 202 212 205 204 210 204 207 208 215 227 237 235 258 244 242 242 244 237 235 231
350 312 350 336 99 122 125 187 180 148 164 131 137 306 287 275 231 232 237 235 240 233 213 188 192 198 206 211 220 225 226 224 223 225 232 232 237 223 238 250 277 242 248 249
240 332 334 276 268 145 212 144 157 151 143 77 196 334 273 293 250 218 232 225 228 227 232 222 211 203 203 210 215 223 226 223 219 226 232 233 215 219 220 222 237 252 255 253
191 283 244 235 304 290 160 76 53 47 29 221 187 190 261 222 236 311 202 233 233 228 226 229 229 219 210 209 210 212 213 219 224 231 233 232 230 226 233 234 236 244 240 246
334 268 319 299 347 5 67 88 80 167 202 218 304 198 273 248 255 253 262 250 246 253 248 247 239 228 219 214 213 217 224 222 218 223 226 222 227 232 232 237 238 240 241 252
59 341 216 284 260 242 214 197 162 197 181 197 192 217 247 226 217 257 243 271 234 221 233 243 229 224 223 224 225 225 227 229 230 224 226 229 232 233 237 240 243 243 245 250
109 287 270 212 246 149 214 205 185 112 63 109 236 273 279 237 251 248 252 246 163 174 202 219 225 228 225 220 221 221 231 231 232 228 226 230 233 234 237 241 244 246 248 252
158 319 329 290 156 342 203 174 138 143 153 197 288 277 252 348 11 1 20 354 143 146 144 195 214 221 219 212 216 218 220 226 229 226 227 232 234 235 239 241 243 242 244 245
144 141 288 334 160 185 242 192 134 187 237 164 181 262 239 295 325 313 341 113 127 114 102 105 134 183 198 202 210 218 219 217 222 224 232 235 233 233 232 230 229 230 228 225
319 225 274 250 26 295 147 17 263 217 192 55 128 275 308 321 317 292 257 140 127 112 102 91 99 114 155 190 200 209 209 210 215 217 221 219 222 227 228 227 225 221 215 204
357 347 2 341 2 30 76 133 122 302 116 220 148 247 356 4 18 13 110 121 113 108 105 91 90 98 111 132 172 191 195 200 205 201 205 210 218 225 228 226 220 207 192 185
65 159 172 201 219 324 322 303 187 107 285 156 218 281 220 20 45 43 37 86 95 88 81 77 77 83 92 101 122 146 170 182 194 200 205 209 216 218 219 212 202 192 186 184
73 161 356 287 272 249 269 277 290 174 231 274 343 313 295 9 338 343 105 71 75 67 50 42 64 63 71 85 95 108 138 183 205 211 214 214 213 211 208 201 195 190 186 189
358 272 58 306 330 236 248 266 270 249 258 261 250 267 264 296 353 348 233 156 115 40 15 4 357 342 273 223 214 235 234 225 212 217 216 215 212 208 202 200 197 198 200 197
70 91 38 290 341 328 3 290 258 251 232 249 228 169 325 310 307 281 289 300 304 322 317 317 298 295 298 282 256 239 238 242 241 229 222 221 216 212 205 205 205 209 209 218
125 97 66 309 356 35 242 353 359 105 46 9 351 341 316 289 280 275 286 285 292 296 284 271 235 257 263 270 272 259 245 241 240 237 231 228 222 216 215 217 218 215 215 229
82 109 89 40 310 298 359 8 18 13 49 9 325 333 326 331 280 286 325 325 300 301 299 271 266 272 273 271 270 272 265 256 243 236 237 234 228 225 224 222 215 218 226 223
86 89 111 8 66 209 232 330 335 171 244 8 350 351 341 358 52 347 359 346 342 317 295 287 282 281 280 277 277 273 266 260 254 243 238 233 231 227 225 225 227 226 214 209
172 202 159 172 249 282 252 301 298 46 234 347 13 12 3 358 334 331 341 337 324 321 316 308 301 297 292 284 276 271 264 258 252 243 228 223 223 220 222 221 214 207 207 208
173 156 196 138 227 291 238 336 33 195 202 319 351 359 349 349 352 342 345 324 316 313 310 311 310 304 298 297 289 275 264 255 240 227 213 211 212 210 208 208 208 208 211 213
215 186 186 183 213 235 215 245 193 158 306 325 317 328 325 332 338 343 337 322 313 314 316 318 319 313 314 314 300 274 267 249 224 210 196 200 203 204 207 210 210 212 215 218
247 187 218 354 212 215 228 213 203 178 22 339 329 316 321 323 323 328 335 318 313 316 324 334 341 336 334 341 324 262 236 205 189 185 186 193 202 206 209 211 213 218 220 223
200 146 186 261 265 265 268 203 205 271 302 307 303 299 298 307 325 316 330 312 302 302 322 328 357 9 5 17 24 38 180 180 178 178 184 190 195 206 213 215 219 221 221 228
191 183 170 219 167 140 193 232 298 312 330 320 310 301 271 290 306 303 321 294 285 284 290 312 326 3 19 32 34 60 93 126 153 179 187 191 204 210 212 214 216 219 222 232